Regional Weather Roundup
Issued by NWS

Home | Current Version | Previous Version | Text Only | Print | Product List | Glossary Off
Versions: 1 2 3 4 5 6 7 8 9 10 11 12 13 14 15 16 17 18 19 20 21 22 23 24 25 26 27 28 29 30 31 32 33 34 35 36 37 38 39 40 41 42 43 44 45 46 47 48 49 50

000
ASUS43 KMPX 170410
RWRMN
WEATHER ROUNDUP FOR MINNESOTA
NATIONAL WEATHER SERVICE TWIN CITIES/CHANHASSEN MN
1000 PM CST MON JAN 16 2017


NOTE: "FAIR" INDICATES FEW OR NO CLOUDS BELOW 12,000 FEET WITH NO
SIGNIFICANT WEATHER AND/OR OBSTRUCTIONS TO VISIBILITY. N/A MEANS
CURRENT SKY AND/OR WEATHER CONDITIONS ARE NOT AVAILABLE.

MNZ060>063-068>070-170500-
   Twin Cities Metro

CITY           SKY/WX    TMP DP  RH WIND       PRES   REMARKS
TWIN CITIES    FRZ RAIN  31  27  85 N6        29.97F FOG     WCI  25
ST PAUL        FRZ RAIN  31  30  96 CALM      29.98F FOG
CRYSTAL        CLOUDY    29  19  66 N7        29.97F WCI  22
BLAINE         CLOUDY    30  25  80 N6        29.97F WCI  24
LAKEVILLE      MIX PCPN  28  28 100 NE6       29.95F WCI  22
EDEN PRAIRIE   FRZ RAIN  31  26  82 N7        29.95F WCI  24
SOUTH ST PAUL  MIX PCPN  32  31  95 CALM      29.97F
LAKE ELMO      MIX PCPN  32  32 100 NE3       29.97F
$$
MNZ001>005-007-008-013>017-022>024-027-028-170500-
   Northwest Minnesota

CITY           SKY/WX    TMP DP  RH WIND       PRES   REMARKS
BEMIDJI        CLOUDY     9   7  89 W6        29.99S WCI  -1
HALLOCK        CLOUDY     3   0  85 S5        30.02S WCI  -6
ROSEAU         CLOUDY     3  -2  78 S3        30.01F
WARROAD        CLOUDY     3   0  85 CALM      30.01F
THIEF RVR FALL CLOUDY     6   3  87 CALM      30.01F
CROOKSTON      CLOUDY     7   3  85 CALM      30.04S
FOSSTON        CLOUDY     3   0  85 CALM      30.00F
DETROIT LAKES  CLOUDY    10   9  92 SE3       30.00F
MOORHEAD       CLOUDY     5   1  85 CALM      30.04S
PARK RAPIDS    HAZE       5   0  79 CALM      29.98S VSB 1/4
MAHNOMEN       FAIR       8   6  90 SE5       30.00F WCI  -1
$$
MNZ006-009>011-018-025>026-170500-
   North Central Minnesota

CITY           SKY/WX    TMP DP  RH WIND       PRES   REMARKS
BAUDETTE       CLOUDY     2  -1  88 CALM      30.00S
FLAG ISLAND    CLOUDY     3   0  85 CALM      30.00F
INTL FALLS     CLOUDY     7   3  84 CALM      30.00S
WASKISH        CLOUDY     5   1  85 CALM      29.99S
BIG FORK       CLOUDY    12   9  85 CALM      29.99F
LONGVILLE      CLOUDY    12  10  92 CALM      30.00S FOG
GRAND RAPIDS   CLOUDY    17  14  88 NW3       30.01F
CRANE LAKE     CLOUDY     5   3  92 CALM      30.02F
ORR            CLOUDY    18  14  86 CALM      29.97F
COOK           CLOUDY    10   9  92 CALM      29.99F
WALKER         FAIR      15  13  94 CALM      29.98F FOG
$$
MNZ012-019>021-037-170500-
   Northeast Minnesota

CITY           SKY/WX    TMP DP  RH WIND       PRES   REMARKS
DULUTH         CLOUDY    22  15  75 CALM      29.98F
ELY            CLOUDY    10   9  92 CALM      30.00S
HIBBING        CLOUDY     8   5  87 NW5       29.99F FOG     WCI   0
EVELETH        CLOUDY    12  10  89 CALM      30.00F
DULUTH HARBOR  CLOUDY    23  19  86 CALM      30.03F
TWO HARBORS    CLOUDY    25  18  74 CALM      29.99F
SILVER BAY     CLOUDY    19  18  93 CALM      30.00F
GRAND MARAIS     N/A     23  20  88 N3        30.05F
G MARAIS ARPRT CLOUDY    19  16  86 CALM      29.99F FOG
$$
MNZ029>031-032-039>041-046>048-054>057-064-170500-
   West Central Minnesota

CITY           SKY/WX    TMP DP  RH WIND       PRES   REMARKS
FERGUS FALLS   CLOUDY    12  10  92 CALM      30.07F
WHEATON        CLOUDY    12  10  92 CALM      30.06S
MORRIS         CLOUDY    12  10  92 NW8       30.00F FOG     WCI   1
ALEXANDRIA     CLOUDY    12  10  92 CALM      29.99F FOG
ELBOW LAKE     FAIR       9   8  95 CALM      30.02F FOG
WADENA         CLOUDY     9   7  92 CALM      29.99F FOG
GLENWOOD       FOG       25  25 100 CALM      29.99F VSB 3/4
APPLETON       CLOUDY    21  18  86 N8        30.02S WCI  12
ORTONVILLE     CLOUDY    10   9  92 CALM      30.02S FOG
MADISON        CLOUDY    21  19  93 NW6       30.02F WCI  14
WILLMAR        CLOUDY    30  28  93 CALM      30.00F FOG
$$
MNZ033>034-036-042>043-049>051-058-059-170500-
   Central Minnesota

CITY           SKY/WX    TMP DP  RH WIND       PRES   REMARKS
ST CLOUD       CLOUDY    21  19  92 CALM      30.00S FOG
SAUK CENTRE    CLOUDY    27  27  99 NW3       30.00F FOG
PAYNESVILLE    CLOUDY    29  29 100 CALM      30.00F FOG
AITKIN         CLOUDY    14   9  79 CALM      29.99S
PINE RIVER     CLOUDY    10   9  92 CALM      30.03F FOG
BRAINERD       PTCLDY    11   9  92 CALM      30.00F FOG
STAPLES        CLOUDY     9   9 100 CALM      30.00S FOG
LONG PRAIRIE   CLOUDY    27  21  80 CALM      30.00S
LITTLE FALLS   CLOUDY    28  23  80 CALM      30.01S
LITCHFIELD     CLOUDY    30  27  86 N7        29.99S WCI  23
BUFFALO        CLOUDY    28  20  75 N5        30.00S WCI  22
MAPLE LAKE     CLOUDY    28  23  81 N6        30.00F WCI  22
HUTCHINSON     CLOUDY    31  26  84 N5        29.99S WCI  26
$$
MNZ037-044-045-052-053-170500-
   East Central Minnesota

CITY           SKY/WX    TMP DP  RH WIND       PRES   REMARKS
PRINCETON      CLOUDY    27  19  74 CALM      30.00S
MORA           CLOUDY    19  16  86 CALM      30.01F
CAMBRIDGE      CLOUDY    28  18  64 CALM      29.99S
RUSH CITY      CLOUDY    27  21  80 CALM      30.00S
MOOSE LAKE     CLOUDY    19  16  86 CALM      29.99F
HINCKLEY       FAIR      23  19  86 CALM      30.00F
CLOQUET        CLOUDY    21  16  79 CALM      29.98F
MCGREGOR       CLOUDY    18  14  86 NW3       30.00S
$$
MNZ071>073-080-081-089-090-097-098-170500-
   Southwest Minnesota

CITY           SKY/WX    TMP DP  RH WIND       PRES   REMARKS
MONTEVIDEO     FOG       27  25  93 N6        30.03S VSB 3/4 WCI  20
GRANITE FALLS  FOG       28  27  96 NW8       30.01F VSB 1   WCI  20
CANBY            N/A     23  20  88 CALM      30.02F
MARSHALL       MIX PCPN  23  22  96 NW7       30.00S VSB 3/4 WCI  15
REDWOOD FALLS  CLOUDY    31  28  89 N7        29.98F FOG     WCI  24
OLIVIA         CLOUDY    32  30  93 N8        29.98F FOG     WCI  25
PIPESTONE      FOG       27  27 100 N7        29.96S VSB 3/4 WCI  19
WINDOM         MIX PCPN  30  30 100 N10       29.95S VSB 1   WCI  21
WORTHINGTON    MIX PCPN  30  29  96 N14       29.95S FOG     WCI  19
JACKSON        DRIZZLE   30  30 100 CALM      29.94S
TRACY          FOG       26  26  99 NW9       29.99S VSB 1/2 WCI  17
SLAYTON        FOG       25  25  99 N10       29.97S VSB 3/4 WCI  15
$$
MNZ065>067-074>077-082>085-091>093-170500-
   South Central Minnesota

CITY           SKY/WX    TMP DP  RH WIND       PRES   REMARKS
MANKATO        MIX PCPN  31  30  96 N8        29.94F FOG     WCI  23
NEW ULM        MIX PCPN  30  30 100 N3        29.96S
ST JAMES       MIX PCPN  30  30 100 N6        29.96S WCI  24
FAIRMONT       MIX PCPN  31  30  96 N10       29.93F FOG     WCI  22
GLENCOE        CLOUDY    31  28  89 N7        29.97S WCI  24
FARIBAULT      RAIN      30  30 100 N6        29.94F WCI  24
OWATONNA       LGT SNOW  32  30  93 CALM      29.93S
WASECA         LGT SNOW  32  32 100 N5        29.94S WCI  27
ALBERT LEA     LGT SNOW  34  32  93 NE3       29.90F
$$
MNZ078>079-086>088-094>096-170500-
   Southeast Minnesota

CITY           SKY/WX    TMP DP  RH WIND       PRES   REMARKS
ROCHESTER      CLOUDY    31  31 100 NE8       29.91S FOG     WCI  23
RED WING       MIX PCPN  34  30  86 CALM      29.95F
STANTON        DRIZZLE   32  31  94 NE5       29.94F WCI  27
DODGE CENTER   MIX PCPN  32  30  93 CALM      29.91F
WINONA         MIX PCPN  34  34 100 CALM      29.95F
AUSTIN         MIX PCPN  32  30  93 NE3       29.90F
PRESTON        CLOUDY    31  30  96 CALM      29.90F FOG
$$
ABBREVIATIONS USED IN REMARKS
   TC - TEMPERATURES IN CELSIUS
  WCI - WIND CHILL INDEX
   HX - HEAT INDEX
  VSB - VISIBILITY
$$




USA.gov is the U.S. government's official web portal to all federal, state and local government web resources and services.